GFSFLT1_250_spd_000.txt.gz
Wind_Speed
40 39 43 48 49 42 41 42 47 48 52 54 55 56 60 63 66 67 63 63 64 68 71 71 70 70 73 76 75 74 76 76
41 43 45 47 44 41 40 46 47 48 52 56 58 61 63 67 68 63 65 68 72 73 74 75 77 79 80 80 80 82 84 83
41 43 46 47 45 44 45 46 50 53 54 57 60 65 68 69 65 67 70 74 77 79 82 86 87 88 88 89 90 90 93 94
41 42 42 42 42 42 43 48 52 53 57 61 65 68 67 68 71 75 79 82 84 87 92 93 92 91 93 95 98 101 104 106
39 38 39 42 42 45 48 52 55 58 61 64 64 65 68 70 74 79 83 86 90 94 97 98 100 101 105 108 111 114 115 116
44 43 41 43 46 50 53 55 57 59 60 61 62 65 69 74 79 85 91 94 98 100 103 106 109 113 117 120 125 128 129 129
43 45 46 48 50 52 55 57 57 58 62 64 68 73 76 80 86 91 96 100 105 109 112 115 119 125 129 133 134 135 136 133
37 40 44 48 54 57 56 56 58 62 65 69 73 77 82 87 92 97 102 106 109 115 119 123 128 133 138 137 136 135 133 130
39 41 46 48 53 56 59 62 66 70 72 75 79 82 86 90 95 102 107 113 118 122 125 129 136 140 134 131 130 128 124 116
43 46 49 52 55 58 61 64 66 69 73 77 82 87 92 96 103 109 115 121 126 132 135 134 132 128 126 124 118 114 108 103
47 47 49 52 56 59 63 65 68 73 78 82 88 94 99 105 112 116 121 127 132 134 132 128 127 125 122 115 107 105 99 94
47 50 54 57 60 62 64 68 74 77 82 88 94 102 110 114 117 123 128 131 130 126 124 123 119 117 109 102 97 93 91 88
50 52 54 56 60 63 67 72 78 83 88 96 101 108 114 119 123 127 130 128 127 124 121 117 112 106 99 94 90 87 82 78
54 55 57 59 62 68 74 79 84 90 96 101 106 112 117 121 126 129 129 126 124 122 115 107 99 94 92 87 82 77 74 72
60 61 61 62 67 71 77 83 90 96 103 108 112 117 123 128 129 126 125 124 122 115 107 99 91 84 81 77 74 73 71 67
61 61 61 65 71 77 83 88 95 103 108 113 116 122 127 127 126 124 123 120 115 105 98 90 83 79 75 73 70 68 65 63
58 60 64 70 76 83 89 96 104 108 115 119 123 126 126 126 124 123 118 111 102 94 88 82 77 74 72 69 66 63 60 58
62 67 72 78 85 91 97 102 108 115 121 124 128 129 127 123 121 116 107 99 92 85 80 76 73 70 68 64 60 59 56 53
69 75 80 87 92 97 103 109 114 118 123 127 129 127 126 122 116 106 96 90 83 79 75 71 68 65 63 59 57 55 51 49

GFSFLT1_250_spd_003.txt.gz
Wind_Speed
49 46 48 47 47 45 40 37 37 45 56 68 73 72 71 74 71 70 70 71 72 74 74 71 72 73 73 75 76 78 80 81
43 44 44 46 47 47 41 42 48 53 61 67 70 74 77 77 74 74 75 77 78 76 75 75 76 77 79 80 82 85 89 90
45 45 46 48 47 48 52 54 54 56 63 69 73 75 74 76 77 77 78 77 77 77 79 80 82 86 89 90 92 93 95 97
43 46 49 51 49 50 52 53 53 55 58 62 65 69 73 75 75 76 78 79 80 82 86 88 91 94 98 101 103 105 106 108
41 44 46 46 46 46 50 50 49 53 57 61 65 70 72 73 75 79 81 82 85 88 93 96 101 105 109 112 115 118 120 122
43 44 43 44 45 49 47 49 53 58 61 65 67 69 72 75 78 80 83 86 90 96 101 106 109 112 118 122 126 128 129 130
38 39 37 37 44 49 50 53 57 61 63 66 69 71 73 76 78 83 89 96 101 103 109 114 118 122 125 129 129 130 130 129
37 40 40 45 49 52 55 57 59 62 66 69 71 74 77 81 85 89 94 99 103 109 115 118 123 128 130 130 131 129 129 128
39 44 46 48 52 54 56 58 61 65 68 71 72 75 78 83 87 92 99 103 109 115 122 126 130 131 130 129 125 124 122 121
41 44 47 49 52 57 60 63 65 67 69 71 75 78 81 86 93 98 104 110 116 122 126 128 128 131 125 122 121 119 114 106
44 47 50 52 54 58 60 62 64 66 68 72 77 81 86 92 99 105 109 116 121 125 127 127 124 123 122 119 111 105 100 93
47 48 51 54 56 59 61 63 65 67 71 74 79 85 93 100 105 111 118 120 124 129 127 124 119 118 117 110 103 96 92 86
52 53 54 56 59 61 62 64 66 70 74 80 86 94 100 108 115 121 123 127 126 125 120 119 120 113 107 101 95 89 83 78
57 57 57 58 59 61 62 65 71 76 82 90 96 102 107 113 122 127 127 126 123 119 118 115 111 105 98 93 86 80 76 74
58 58 56 58 60 62 67 73 79 86 92 98 104 107 112 118 128 128 124 122 119 118 113 108 101 96 90 84 79 75 72 69
57 58 58 60 64 69 75 81 87 94 99 104 108 114 120 127 132 128 124 120 118 113 107 99 94 88 82 77 74 72 68 65
58 61 63 66 70 76 81 87 94 101 105 109 115 121 127 135 131 126 124 118 113 104 97 91 85 80 75 73 70 68 65 63
60 62 65 70 76 81 87 93 101 105 111 116 121 126 134 132 128 126 122 114 102 95 90 84 79 73 70 69 67 64 60 57
64 66 70 76 80 85 92 98 104 110 115 120 127 133 132 127 125 122 116 105 94 88 82 77 72 68 66 65 63 58 56 55

GFSFLT1_250_spd_006.txt.gz
Wind_Speed
51 53 52 51 50 48 47 41 38 39 47 54 62 62 70 75 76 80 83 84 85 86 86 84 83 85 84 82 81 80 79 78
41 42 42 45 45 46 44 34 45 52 54 59 62 67 73 77 81 85 87 87 85 83 83 84 84 82 84 84 86 87 90 89
39 39 42 44 44 43 44 49 54 58 60 65 69 71 72 74 77 80 80 81 82 84 85 84 86 88 89 89 90 92 95 96
37 38 39 40 42 46 51 54 56 58 60 62 65 67 69 72 74 76 79 81 84 85 86 89 91 92 93 95 96 97 102 108
35 39 40 43 45 47 49 51 53 56 56 58 60 63 67 71 74 77 80 84 87 89 90 91 94 95 98 101 106 111 113 116
28 34 35 36 38 41 45 47 50 53 56 60 62 65 70 73 76 78 80 83 84 86 89 93 98 103 107 110 116 120 122 127
28 32 33 36 40 43 47 50 53 56 59 62 65 67 69 72 75 76 78 82 86 91 95 100 105 110 112 119 124 128 130 135
31 33 38 41 46 49 51 54 56 58 60 62 64 67 69 71 75 79 82 85 91 95 102 107 112 117 120 126 130 131 126 125
39 42 45 48 50 52 53 55 57 59 62 63 66 69 71 74 78 82 86 91 97 103 109 114 119 121 123 127 124 120 119 115
44 47 50 53 56 59 61 62 63 63 65 67 68 69 71 75 81 87 93 100 105 110 112 116 118 117 119 118 116 111 112 109
49 52 55 57 59 62 63 63 63 63 64 64 65 69 75 81 88 94 100 104 106 111 112 114 117 116 114 114 114 108 102 96
52 52 54 57 60 62 62 61 60 61 63 64 69 76 82 88 93 100 106 109 116 116 117 117 114 117 116 113 105 100 94 90
51 52 53 55 56 57 57 58 60 62 65 70 76 81 87 93 99 108 114 118 120 122 117 117 117 116 110 102 97 93 90 85
53 52 53 54 54 56 60 62 64 67 71 77 82 88 96 101 106 114 121 122 123 120 120 119 116 109 100 95 91 88 84 79
59 60 58 57 58 61 64 66 69 73 77 83 88 95 101 107 114 123 122 126 122 121 121 117 109 100 94 90 86 82 77 72
62 61 63 63 62 63 65 69 74 79 84 89 96 103 108 114 125 128 129 124 124 123 118 111 100 94 89 85 80 76 72 69
66 69 68 65 64 66 70 75 81 86 92 96 104 110 115 121 129 131 124 123 121 115 109 99 93 88 83 79 75 73 69 64
74 76 74 68 68 71 77 84 89 93 97 103 110 114 119 128 131 125 122 121 116 108 97 93 88 83 78 74 71 68 64 60
79 79 76 73 76 79 85 90 93 98 103 109 114 118 125 130 126 123 121 117 110 100 92 87 83 78 73 70 67 65 61 56

GFSFLT1_250_spd_009.txt.gz
Wind_Speed
42 45 46 48 47 46 46 48 49 50 51 54 56 57 61 63 67 73 78 83 87 89 90 88 85 84 84 84 84 83 84 85
40 39 38 40 40 41 43 43 46 43 48 53 56 59 62 66 71 76 79 82 85 85 84 84 84 83 85 86 87 88 89 89
34 32 34 37 40 39 42 43 45 47 50 54 59 64 68 71 74 77 79 80 81 81 82 84 85 85 86 88 89 88 88 89
28 29 31 33 36 39 41 45 49 52 56 59 62 64 66 67 69 71 73 77 79 80 81 83 85 87 87 88 89 93 97 101
24 27 31 35 38 41 43 45 46 47 49 53 57 60 63 65 68 71 73 75 77 79 80 82 84 86 87 92 98 103 107 111
23 25 28 32 35 38 41 43 45 47 51 54 58 62 64 67 69 71 73 74 76 78 80 81 86 91 96 101 107 109 110 112
28 30 32 35 39 42 46 49 52 54 57 60 62 65 66 68 69 70 72 73 72 75 81 86 93 98 103 109 111 113 113 115
32 35 39 42 46 49 53 56 58 60 61 63 65 67 68 69 69 69 69 72 78 83 87 92 99 103 112 112 113 117 116 113
34 39 42 44 47 50 53 55 58 60 61 63 64 63 64 65 68 71 75 80 85 90 93 100 104 112 116 116 113 112 108 107
37 41 43 46 49 51 53 54 56 57 57 60 62 65 67 70 73 76 81 86 89 94 101 106 110 116 116 110 110 110 105 102
42 43 45 48 50 52 54 55 56 58 59 60 63 65 67 71 76 80 85 89 94 101 104 110 115 114 110 112 110 104 99 96
45 47 50 51 53 56 59 59 60 61 62 62 64 66 70 75 80 84 89 93 99 107 110 112 115 113 115 111 104 99 93 90
49 47 47 49 53 57 61 59 59 61 62 64 67 70 75 81 83 87 93 99 107 110 113 113 114 116 113 105 98 92 88 84
52 54 55 56 59 63 66 65 62 61 62 66 71 76 81 84 90 94 100 107 110 115 114 115 117 113 105 97 92 86 83 80
56 61 64 66 67 69 72 71 67 68 71 72 76 81 86 93 97 102 108 112 117 117 117 117 114 107 98 92 86 82 78 75
62 66 70 71 71 72 77 75 72 74 77 80 85 88 95 98 103 110 115 116 117 118 117 115 107 98 91 86 82 78 75 72
66 69 74 74 75 77 80 79 78 81 83 86 91 96 101 105 110 114 117 118 118 115 112 106 98 92 86 81 78 74 72 69
72 74 77 77 79 81 82 82 83 85 89 93 98 102 107 111 113 117 118 116 115 112 106 99 92 86 81 77 74 72 69 66
77 79 79 81 83 84 85 84 86 89 95 99 104 108 111 113 115 116 113 112 111 108 101 94 89 82 77 73 71 69 66 62

GFSFLT1_250_spd_012.txt.gz
Wind_Speed
35 38 42 43 44 45 48 47 46 45 46 46 49 53 55 57 62 68 71 75 78 81 85 87 87 87 86 84 83 84 85 83
36 39 41 42 42 42 43 43 42 42 43 48 52 55 56 60 65 67 71 74 78 81 80 81 82 83 85 85 85 85 84 80
36 35 34 35 36 36 37 39 41 43 46 48 52 56 59 62 63 64 67 70 73 76 80 82 84 85 84 85 85 85 83 79
27 28 29 30 32 34 37 39 41 44 46 48 51 54 57 60 64 67 71 73 76 78 81 83 84 84 84 82 80 81 87 91
22 23 26 29 31 32 35 38 41 44 47 51 55 58 61 65 68 71 73 76 78 80 81 81 82 82 81 80 85 90 92 98
17 19 22 25 29 33 37 42 46 50 53 57 60 64 67 70 72 74 75 75 74 73 73 73 76 79 83 89 92 95 99 105
18 23 27 31 35 37 41 45 49 53 56 60 62 65 66 67 68 68 67 66 67 69 71 76 80 85 90 93 97 102 106 112
23 25 29 32 35 38 41 44 46 47 49 51 55 58 61 63 65 66 68 69 72 75 79 83 87 90 93 96 102 107 114 117
22 27 31 34 37 40 43 44 47 48 51 56 59 61 63 65 68 69 71 72 75 78 83 86 90 94 97 103 109 112 114 114
28 30 34 37 38 41 46 49 52 54 55 59 61 62 63 64 66 68 70 73 77 82 86 93 96 101 106 109 112 114 111 108
32 34 38 40 43 46 50 53 57 59 61 64 66 67 66 65 67 69 72 77 83 88 93 96 102 107 111 112 110 107 106 102
34 39 43 47 50 54 58 61 63 64 66 68 71 72 70 69 72 75 79 84 90 94 99 102 107 110 110 109 106 107 106 100
38 43 48 52 55 60 64 68 71 70 70 71 73 74 72 74 78 81 85 92 97 99 103 106 108 108 107 110 110 104 97 91
45 48 53 57 61 65 68 71 74 74 74 75 75 75 76 79 83 87 93 98 101 103 107 108 108 108 109 108 101 94 88 84
50 53 58 62 65 69 73 75 78 78 79 79 80 79 82 85 89 94 99 103 104 108 110 108 109 108 108 101 93 86 82 78
56 59 62 65 69 74 78 80 81 81 84 84 82 85 87 91 96 101 105 107 110 111 108 107 108 108 100 93 85 81 77 74
60 64 67 70 74 79 83 82 83 86 86 85 87 88 93 98 103 107 108 111 111 108 106 107 107 102 94 86 80 78 75 72
66 71 74 76 80 84 85 84 87 86 87 88 90 95 100 105 108 109 111 110 107 107 109 108 104 94 88 83 79 76 73 70
73 77 78 80 84 87 85 87 87 88 89 93 97 101 106 110 111 110 106 106 106 106 107 104 97 92 84 81 78 73 70 66

GFSFLT1_250_spd_015.txt.gz
Wind_Speed
36 39 40 41 43 46 49 49 51 54 57 59 62 63 64 62 62 62 65 67 71 73 74 78 81 79 78 80 80 84 85 84
33 35 37 40 42 43 47 48 50 52 54 53 54 53 55 56 58 60 63 64 67 68 70 73 77 82 82 84 86 88 89 90
36 38 39 40 42 43 44 46 44 43 43 44 46 47 49 51 55 59 63 67 70 74 78 81 83 86 88 89 90 89 88 86
35 37 37 37 37 35 33 33 33 35 39 43 46 50 55 58 63 67 70 75 78 81 84 87 90 91 92 91 88 84 83 83
31 30 28 24 23 25 28 31 35 39 43 47 50 54 56 59 61 63 67 69 73 75 77 77 78 76 76 77 79 81 85 89
20 18 17 20 23 26 31 34 38 42 46 48 49 49 51 52 54 58 60 64 66 69 69 70 71 74 75 79 83 88 89 92
15 15 17 21 25 29 33 36 39 41 44 46 49 53 56 58 60 62 64 66 67 69 70 71 73 76 80 82 85 91 96 103
14 15 19 23 27 31 33 35 38 41 45 49 51 55 58 59 62 64 68 69 70 70 71 75 78 81 83 89 94 101 106 111
15 19 23 28 30 34 37 41 45 48 52 56 59 63 66 68 69 71 73 74 74 74 76 80 83 88 92 98 104 108 109 108
21 24 28 33 35 38 43 46 49 52 56 62 67 71 73 75 75 76 77 77 76 77 81 84 89 95 100 106 108 108 110 109
28 31 33 37 39 43 48 51 54 58 62 65 69 73 75 77 76 78 78 78 80 83 88 92 97 102 107 109 110 112 110 105
37 38 41 43 43 48 53 56 60 63 65 69 74 78 76 78 80 80 82 83 86 90 96 100 105 109 111 111 113 111 106 106
42 44 45 47 50 54 58 62 66 70 73 75 78 81 80 83 82 83 86 88 93 98 103 107 109 111 113 110 108 109 110 107
44 44 47 51 57 59 62 67 73 77 78 79 82 84 84 85 85 88 91 96 100 104 107 110 110 108 107 108 107 107 104 98
47 47 49 55 63 64 68 74 78 80 81 84 86 85 86 87 90 94 98 102 106 109 111 109 106 108 109 106 106 102 97 93
49 50 54 62 66 70 74 78 81 83 85 87 86 88 88 92 96 100 103 106 109 110 108 107 105 105 107 105 100 95 93 87
53 56 62 66 70 73 77 81 84 85 85 86 88 90 94 98 102 105 109 109 109 104 105 107 108 107 103 97 92 90 84 78
59 61 64 68 73 78 82 84 84 84 85 86 89 94 98 102 105 108 108 103 100 104 108 109 108 105 99 92 90 85 78 73
61 65 71 75 80 82 84 81 82 84 88 91 95 99 103 108 107 104 100 101 104 108 108 106 102 97 92 88 86 81 73 70

GFSFLT1_250_spd_021.txt.gz
Wind_Speed
48 43 40 45 45 46 44 46 49 51 57 62 68 71 77 84 82 81 76 75 74 75 74 71 72 72 74 74 74 75 75 75
36 38 37 44 44 42 45 50 55 57 59 60 62 65 68 67 68 68 67 66 64 63 64 63 65 67 69 71 73 74 76 79
32 35 36 40 43 38 47 48 52 51 51 55 55 57 58 58 56 55 54 56 55 54 57 62 64 67 70 72 72 75 77 79
43 38 37 39 42 42 43 48 51 52 51 51 51 47 45 48 50 50 50 50 53 57 62 66 69 72 74 76 77 77 77 77
38 41 39 38 40 37 39 43 43 44 45 40 41 42 43 42 44 48 52 56 60 62 67 69 72 75 78 78 78 79 79 80
33 33 33 32 31 33 34 35 35 36 39 41 40 39 41 44 46 51 55 58 62 67 71 75 79 82 81 79 79 81 83 87
26 29 26 27 27 28 29 33 36 38 38 41 42 44 49 51 54 58 62 66 70 75 79 82 85 82 82 82 84 89 94 96
30 31 24 25 27 28 31 34 37 42 44 45 45 49 54 58 60 64 69 73 77 81 84 85 83 81 85 89 93 96 101 105
34 25 25 28 29 28 31 35 41 46 50 51 51 54 57 61 65 69 73 78 82 86 87 84 84 84 88 95 98 103 108 111
35 29 29 28 30 33 35 40 46 51 55 55 55 58 62 67 69 72 77 83 87 87 85 85 85 90 92 98 103 108 112 110
30 27 29 32 35 38 39 42 48 53 56 56 58 62 67 67 71 77 83 88 89 89 88 87 90 95 100 103 108 112 107 106
29 28 32 37 41 44 46 46 48 53 58 60 63 61 66 71 77 81 86 90 90 91 90 92 94 99 105 109 112 109 107 106
30 33 37 40 44 46 51 50 50 55 64 67 63 66 72 77 82 86 89 92 92 93 92 94 98 104 108 112 108 105 105 107
34 36 40 44 47 50 52 54 58 62 67 68 66 73 78 84 87 89 95 93 93 94 96 100 104 109 111 107 104 104 105 106
35 38 41 44 48 52 56 60 64 65 66 70 74 77 84 87 92 95 98 95 96 97 102 107 108 108 105 104 103 105 104 103
42 44 47 48 50 55 59 62 65 69 73 77 80 84 90 91 94 98 97 98 98 104 108 109 107 103 102 104 106 104 103 101
53 51 52 56 57 58 61 66 68 74 80 84 87 91 92 96 99 98 99 101 106 110 111 107 103 103 103 105 102 101 97 96
58 60 60 60 60 64 69 71 75 80 85 89 93 95 97 100 100 101 103 109 111 110 108 106 103 105 105 104 103 99 97 93
57 63 66 67 69 72 74 76 81 86 90 93 95 97 99 99 102 106 110 112 111 109 108 107 104 105 105 102 98 97 95 91

GFSFLT1_250_spd_024.txt.gz
Wind_Speed
52 57 54 47 50 52 53 54 58 59 61 69 76 73 67 67 69 69 73 77 78 78 80 76 73 72 73 69 69 73 77 81
45 53 54 48 46 49 53 57 64 65 62 59 59 61 63 67 70 69 71 72 72 70 70 70 69 66 66 67 72 75 79 82
42 46 49 51 50 54 55 53 51 51 52 53 59 61 61 62 64 66 67 66 65 65 65 62 62 64 68 72 76 80 84 86
29 34 37 37 39 40 42 45 46 49 51 53 56 57 59 59 60 60 60 61 62 61 60 62 64 68 74 78 83 87 88 85
38 36 42 44 43 36 40 41 41 43 47 49 49 51 50 52 54 58 60 62 60 63 65 67 70 73 78 82 87 89 88 86
41 41 41 40 31 30 37 37 38 44 43 42 43 45 48 53 56 59 60 62 66 69 70 70 72 76 82 87 89 88 88 88
41 35 32 28 28 31 32 36 35 34 38 41 44 47 52 55 59 61 62 64 65 66 68 70 75 81 86 89 90 89 88 90
38 38 29 23 23 27 32 34 36 36 40 44 45 48 51 53 56 59 63 65 65 66 70 76 80 84 89 93 91 90 91 92
31 25 23 26 25 30 35 39 40 43 44 46 49 51 53 56 60 61 63 63 64 70 77 82 85 89 92 95 93 94 95 98
27 30 30 25 31 33 36 40 44 46 47 49 53 56 59 62 64 66 65 68 72 76 82 86 89 93 96 92 94 97 101 106
34 37 33 34 34 33 37 42 46 49 52 55 58 59 62 64 66 66 70 74 78 83 88 89 94 97 96 96 98 102 107 108
27 28 34 36 36 37 40 43 48 52 55 59 62 64 65 65 68 73 78 82 85 89 92 94 98 97 99 101 106 108 106 104
29 34 36 37 39 40 43 47 49 53 58 64 66 66 68 70 74 79 83 86 89 94 97 98 96 99 104 106 106 105 103 102
33 34 35 37 42 47 49 51 53 57 61 63 65 69 70 73 78 84 87 90 95 96 95 95 98 104 107 105 104 102 101 101
33 34 35 39 45 49 52 53 56 59 61 63 67 69 72 78 84 88 90 95 95 92 95 97 105 104 103 103 102 102 101 101
34 38 42 45 49 50 52 56 61 62 64 67 70 74 80 85 88 92 94 97 93 93 99 103 103 103 102 103 105 104 104 102
43 46 47 49 50 53 57 62 63 64 68 72 77 82 86 90 91 92 99 96 96 98 103 107 108 105 105 104 104 104 103 101
50 52 52 54 57 59 65 66 67 70 73 78 82 87 91 90 92 98 96 98 103 105 109 112 108 106 106 107 107 105 102 99
56 56 58 60 64 67 69 70 72 76 80 84 89 92 93 94 99 97 98 103 106 109 114 111 108 108 108 107 106 101 98 96

GFSFLT1_250_spd_027.txt.gz
Wind_Speed
40 37 39 40 48 53 55 60 60 60 64 70 60 65 65 69 70 74 76 75 77 78 78 76 75 74 73 71 70 70 72 75
55 53 53 53 49 49 53 57 57 60 62 64 69 73 70 69 71 65 70 71 73 73 73 70 69 70 72 71 73 74 77 79
60 58 52 59 56 51 54 55 62 64 61 61 64 67 67 64 61 63 66 67 66 64 65 67 69 72 75 75 77 81 84 86
47 51 58 50 54 53 55 59 59 60 62 60 56 54 54 57 59 61 61 59 60 63 67 71 74 76 76 77 79 75 75 81
38 49 58 57 58 55 52 51 53 50 49 48 49 52 50 54 55 54 55 59 64 68 71 74 75 76 76 75 73 76 82 87
38 39 43 43 45 47 47 45 42 42 40 41 42 44 46 47 48 53 57 61 62 61 64 67 69 71 70 74 78 81 86 91
38 40 45 45 46 47 37 34 34 37 38 34 40 45 47 49 53 56 60 62 65 67 68 67 65 70 73 77 81 86 91 93
36 36 38 41 43 41 33 31 31 37 37 40 45 48 50 54 57 59 63 66 67 69 68 67 71 75 79 82 86 89 92 93
38 34 34 33 31 25 29 29 32 38 42 46 48 51 54 56 59 63 65 68 70 70 68 72 76 81 83 86 92 91 88 91
34 30 30 28 26 28 32 34 39 44 45 47 50 53 55 58 60 64 68 69 68 69 72 77 82 85 85 91 92 90 91 96
28 29 29 32 33 33 33 39 42 45 47 51 52 53 55 59 64 67 66 68 70 73 79 83 86 88 91 95 92 92 96 102
25 23 24 28 30 33 38 42 46 47 48 50 51 54 58 63 64 65 69 72 75 79 84 86 88 92 96 93 95 98 102 105
25 27 29 30 34 39 44 46 46 47 50 52 55 60 63 66 68 70 72 76 81 85 87 89 92 97 94 96 101 103 105 106
30 30 32 34 37 40 43 47 51 54 55 58 60 65 69 68 69 74 79 84 87 90 91 94 98 94 96 101 102 104 106 105
28 30 34 37 38 41 43 52 55 58 60 62 65 70 70 71 74 80 85 87 89 92 94 98 95 96 101 102 107 107 105 105
31 34 38 38 42 47 52 55 58 61 63 66 70 71 72 74 79 84 87 89 90 92 97 94 97 101 102 106 106 106 107 108
36 38 40 43 48 51 54 58 59 62 66 70 72 74 77 81 85 87 89 90 92 97 97 97 100 101 104 108 110 110 110 109
39 43 45 49 52 54 57 59 62 65 69 72 75 78 82 87 89 90 93 93 96 97 99 104 104 109 112 114 113 112 110 108
44 48 51 53 55 58 60 63 66 70 73 75 79 84 89 91 93 94 96 97 98 98 104 104 108 113 115 115 114 112 113 110

GFSFLT1_250_spd_030.txt.gz
Wind_Speed
42 46 44 48 50 55 61 58 63 61 61 62 61 61 66 68 70 70 79 82 79 78 77 70 68 69 72 73 73 73 76 79
41 44 39 48 52 56 57 59 62 60 62 60 65 68 69 72 75 76 76 73 73 67 65 65 67 68 70 71 73 75 75 78
41 39 42 43 48 47 52 54 56 55 58 61 67 72 78 81 79 78 75 68 66 63 62 63 64 65 68 69 69 73 76 77
46 49 49 47 50 55 58 58 60 65 66 63 59 65 70 72 68 62 56 57 57 57 58 60 63 67 71 74 77 79 76 74
36 38 42 42 44 47 51 48 45 48 51 56 58 58 56 55 54 54 52 54 56 57 61 64 68 71 74 76 76 76 76 79
40 37 36 32 34 35 41 45 49 54 51 55 55 52 51 52 50 50 54 56 58 61 65 68 71 75 76 75 74 74 78 83
36 38 37 37 37 37 39 29 39 47 50 49 45 47 48 49 50 53 57 59 63 65 68 70 73 76 74 74 74 79 83 86
38 37 38 40 41 40 37 37 44 44 41 42 45 44 46 50 53 56 59 63 65 66 68 72 74 71 74 76 80 83 84 86
38 38 37 39 37 39 41 36 37 40 38 40 44 45 48 53 56 58 62 64 64 67 71 72 73 75 78 81 85 86 87 89
37 38 37 40 37 35 36 29 34 38 38 43 45 47 51 55 59 61 64 64 67 70 72 73 76 79 82 84 86 88 91 96
39 38 36 35 34 35 32 34 37 36 40 42 45 51 55 56 60 62 64 65 69 72 72 74 79 83 83 86 88 91 96 98
36 33 31 32 33 28 28 31 34 39 42 48 50 52 55 60 62 63 65 68 72 72 74 79 84 86 86 89 93 96 99 100
34 30 29 25 25 27 30 34 39 42 43 46 48 54 58 61 64 66 69 72 73 76 80 84 87 91 91 94 98 99 99 104
31 29 25 26 29 30 33 36 41 43 44 50 55 57 59 63 67 69 73 76 78 81 86 89 93 96 97 99 101 99 104 107
31 26 26 30 32 31 37 41 45 47 52 57 60 62 65 68 70 74 79 79 82 86 90 94 97 100 101 103 100 105 108 109
28 26 30 33 35 35 40 44 50 53 58 62 65 67 69 71 75 79 80 82 86 90 95 98 99 102 103 99 104 108 109 111
29 32 33 36 39 42 46 50 54 59 63 65 67 71 73 75 79 80 83 86 91 94 97 99 101 103 101 106 110 110 111 114
34 35 37 41 43 47 51 55 59 62 65 67 70 75 76 79 81 83 86 91 94 98 98 100 103 102 107 111 113 112 113 116
38 40 42 45 48 52 56 60 62 64 66 71 74 77 79 82 84 88 92 96 97 98 100 103 102 106 111 115 114 114 115 117

GFSFLT1_250_spd_033.txt.gz
Wind_Speed
30 27 31 30 30 43 48 50 47 50 51 57 53 52 56 63 64 66 66 66 74 75 77 83 86 83 80 73 67 68 66 66
30 32 31 36 37 40 43 49 42 46 55 57 55 58 62 60 66 68 68 73 75 76 78 82 81 72 70 68 66 66 67 70
29 31 37 33 41 38 44 50 51 52 55 60 58 60 64 67 69 70 74 72 75 79 80 76 73 68 67 65 66 68 71 74
27 32 34 36 39 49 52 55 55 51 55 57 63 62 64 67 68 72 74 77 76 74 70 64 62 62 64 66 70 71 72 75
38 40 39 42 42 44 46 47 48 53 57 60 65 63 57 59 65 66 67 70 66 62 58 59 62 64 67 69 71 75 77 77
37 40 41 43 49 46 41 40 45 38 38 46 49 52 51 53 57 59 57 57 55 58 58 62 64 67 69 71 74 77 77 77
30 30 31 31 32 33 33 32 34 36 37 40 43 49 55 51 50 52 52 53 56 58 62 65 68 70 72 73 77 77 78 81
29 30 31 32 34 33 31 31 30 29 40 41 49 47 48 50 51 51 55 58 60 63 65 68 71 72 74 76 79 77 79 84
32 31 32 33 36 35 34 33 30 27 40 42 49 45 48 49 50 54 57 56 61 66 68 70 72 74 78 80 78 79 85 87
29 30 32 32 33 35 36 35 36 38 46 48 46 49 50 52 54 57 57 61 66 68 72 74 76 76 79 80 81 84 87 90
33 34 33 31 34 35 36 37 35 37 41 44 47 48 49 51 54 56 58 64 68 71 71 71 74 77 81 83 86 87 89 92
37 37 36 36 35 34 34 35 35 33 35 40 42 45 50 51 54 55 65 68 70 70 71 73 76 80 82 86 89 89 92 95
41 39 37 35 34 33 33 31 27 28 32 38 41 41 46 50 54 63 68 69 70 73 75 78 82 84 87 90 92 93 94 97
43 38 34 35 34 33 32 29 27 34 37 40 46 51 53 59 65 69 67 70 73 76 79 82 85 88 91 94 96 97 100 102
35 34 33 35 35 34 36 33 35 36 41 46 51 56 61 64 67 67 68 73 77 81 83 86 88 91 94 96 97 101 105 105
32 35 34 32 35 37 37 36 40 41 47 51 57 60 64 66 67 71 74 78 80 84 86 87 91 94 96 99 97 101 104 106
34 33 35 36 37 40 42 43 46 49 53 56 60 64 66 68 72 76 79 81 84 87 87 92 93 98 99 100 102 108 110 111
39 41 39 39 42 43 45 47 49 53 56 61 65 67 69 72 76 79 82 84 87 88 91 94 97 99 102 106 108 111 111 115
42 42 42 41 43 46 48 51 54 57 61 65 67 70 73 76 79 81 84 86 87 91 94 97 99 101 104 107 111 110 114 118

GFSFLT1_250_spd_036.txt.gz
Wind_Speed
16 12 20 16 23 28 34 38 46 43 47 44 41 46 45 57 53 56 60 68 74 71 71 72 79 76 81 80 81 79 77 74
24 27 21 23 25 38 30 36 41 46 45 50 52 49 56 56 65 60 69 68 68 68 72 78 80 84 79 81 80 78 74 69
30 26 32 19 29 35 39 40 44 46 49 51 49 60 62 56 59 62 64 64 69 75 79 74 72 73 76 77 80 70 68 71
32 33 34 34 29 33 43 36 43 51 52 52 62 60 59 65 65 66 69 76 75 75 72 77 76 77 76 75 68 68 69 70
37 38 33 32 37 39 37 38 42 53 51 52 58 59 63 65 69 69 71 73 71 73 69 71 69 66 65 66 68 70 73 73
34 41 39 42 39 38 41 42 44 43 48 54 56 61 60 61 65 63 63 66 66 67 64 62 62 63 68 68 71 74 75 77
26 26 31 38 40 42 43 44 44 47 45 41 45 44 44 46 46 50 53 57 56 55 57 60 64 66 67 71 74 76 79 80
26 28 29 31 33 33 34 30 29 29 31 34 39 39 45 47 51 52 54 54 56 56 60 64 66 67 70 73 77 78 78 77
33 31 31 32 33 33 32 33 31 26 31 35 36 38 42 48 52 55 56 57 59 60 63 64 66 67 75 76 78 78 79 79
28 31 33 33 33 32 33 33 33 34 36 41 44 42 46 51 54 57 59 60 63 62 63 65 68 75 80 81 80 81 82 83
32 32 32 33 35 34 34 33 36 36 41 48 52 55 55 54 55 56 56 61 64 63 66 68 71 81 83 82 83 85 86 88
34 34 34 35 35 35 34 35 37 37 38 47 53 52 51 50 52 54 57 62 64 66 69 72 80 84 84 84 86 89 93 95
37 38 38 38 38 39 41 39 36 38 41 43 45 53 50 47 51 57 61 63 63 66 73 79 83 84 84 87 91 94 96 97
40 40 42 41 42 42 39 38 39 39 41 42 43 42 46 50 56 61 63 67 70 73 79 82 83 83 87 91 96 99 98 101
43 42 41 40 38 39 39 41 42 43 40 39 42 47 49 55 59 64 69 71 74 78 81 80 83 86 88 94 98 100 102 103
33 34 36 37 37 38 40 45 45 42 43 45 48 51 55 60 64 69 73 75 77 79 82 84 87 88 93 96 98 100 101 104
38 40 38 39 40 42 41 40 43 48 50 52 54 58 62 65 69 73 74 76 79 82 85 88 90 94 97 98 100 101 104 106
40 41 41 41 40 41 43 43 46 51 53 55 58 62 65 68 71 73 76 80 83 85 87 89 93 96 97 99 102 103 105 107
41 44 46 46 44 44 43 42 45 50 54 58 61 64 67 70 73 76 80 83 86 87 89 93 95 97 99 103 105 105 107 111

GFSFLT1_250_spd_039.txt.gz
Wind_Speed
9 9 7 23 21 19 33 28 24 30 31 45 46 48 53 47 52 56 55 57 55 57 67 70 75 75 74 76 80 83 81 83
22 19 13 15 23 24 27 32 38 38 34 47 43 47 49 56 55 54 50 61 65 71 71 71 69 73 78 82 82 83 83 83
28 23 30 20 23 26 31 29 39 46 47 38 44 53 49 50 58 58 62 62 62 63 69 70 75 77 87 89 88 82 77 80
32 26 31 28 27 29 33 41 32 34 39 52 53 56 55 52 53 62 67 67 72 73 72 72 74 79 80 84 78 75 68 67
37 37 31 39 35 32 33 36 45 44 43 45 52 53 59 62 66 64 65 69 71 73 75 79 79 78 76 73 69 65 67 70
41 37 37 39 40 42 37 34 45 46 46 46 48 53 60 65 68 72 71 74 81 79 76 73 68 66 68 66 65 68 72 75
25 30 42 42 41 41 40 40 43 45 48 52 52 54 56 52 57 61 67 70 72 73 67 65 65 66 67 69 71 74 76 77
32 30 28 30 34 37 39 42 44 45 47 49 47 48 42 53 51 57 61 61 61 61 63 63 64 66 71 73 76 76 78 78
32 33 32 31 32 35 37 37 40 41 38 40 37 42 43 47 47 51 55 58 58 56 59 65 67 72 73 75 77 76 79 83
28 28 32 36 39 39 38 37 37 39 37 40 43 43 44 48 50 51 50 53 56 61 67 69 72 74 76 73 77 79 82 89
29 31 33 33 33 33 36 36 35 37 38 41 44 50 52 57 56 58 60 62 65 68 69 69 71 74 77 79 83 84 89 94
34 36 37 37 34 35 37 38 38 39 40 41 46 50 52 56 61 66 66 66 66 65 65 67 72 77 80 84 88 90 94 94
38 39 37 37 38 38 40 43 42 42 43 42 47 49 49 59 62 62 64 66 66 67 69 71 78 81 83 86 91 93 95 93
38 39 40 41 41 44 44 43 44 46 45 44 44 45 46 49 54 62 67 68 68 69 72 75 80 83 86 90 93 92 96 99
41 41 42 44 46 48 49 48 46 43 43 43 43 45 47 51 56 59 62 64 68 72 75 79 82 84 89 89 90 93 96 99
35 39 40 41 41 40 40 43 44 42 41 43 44 46 50 53 58 61 63 68 71 75 80 81 84 85 88 91 95 96 99 101
37 37 38 39 41 42 43 45 46 41 44 46 48 50 53 57 61 65 68 72 75 77 79 81 84 86 89 92 94 96 99 100
39 41 40 40 40 41 42 42 44 47 49 52 52 52 55 58 63 66 69 73 75 76 79 82 85 87 89 92 93 94 97 102
40 41 41 40 40 41 42 43 44 44 43 43 45 48 51 55 59 63 66 70 74 78 80 82 85 88 88 89 92 97 102 105

GFSFLT1_250_spd_045.txt.gz
Wind_Speed
19 27 47 70 72 67 64 64 73 69 64 58 61 62 54 55 48 54 53 56 58 60 60 58 55 54 60 59 58 63 67 70
12 14 24 46 75 68 59 68 72 73 70 68 62 64 64 60 57 55 54 48 51 53 54 54 58 55 56 59 63 62 64 63
8 17 19 21 36 48 57 66 75 71 68 62 61 59 52 50 57 63 54 57 55 53 57 55 56 60 63 66 69 72 78 78
15 11 13 10 16 25 29 36 44 47 48 41 38 40 40 37 35 40 51 59 57 51 54 61 59 58 65 67 70 74 75 78
24 23 19 16 16 18 20 22 22 27 28 31 33 35 36 37 43 43 45 46 51 53 54 55 58 57 63 67 69 76 82 85
28 30 32 29 28 28 31 37 35 32 35 35 44 45 46 47 53 52 56 60 63 63 65 62 66 66 69 74 78 83 84 83
35 34 35 34 34 32 32 31 36 38 44 42 45 38 50 58 62 58 63 64 65 69 73 73 77 79 76 78 83 84 78 76
41 38 34 37 37 36 41 40 40 41 45 48 49 50 51 51 50 54 58 60 66 69 70 74 73 73 75 74 73 73 73 74
42 41 43 39 38 44 40 44 48 51 49 51 55 58 58 63 63 62 61 63 64 65 69 68 69 70 72 70 70 70 72 75
24 41 38 44 41 40 40 36 35 37 39 42 45 46 50 52 56 58 60 60 62 63 63 65 66 68 70 70 70 71 74 78
25 24 31 41 45 44 42 45 45 42 44 50 48 48 54 59 57 56 58 61 61 60 61 65 67 67 66 68 70 73 78 82
21 22 24 28 33 31 29 30 30 25 36 42 45 42 45 45 53 55 55 56 57 62 64 66 67 71 72 73 75 79 82 87
26 24 25 28 39 39 40 44 37 35 39 45 44 39 37 33 44 49 59 62 63 61 63 65 68 71 75 80 82 86 86 86
27 28 28 30 33 36 39 41 40 43 42 48 44 34 35 48 55 61 65 66 66 64 66 64 63 64 67 70 74 79 82 83
25 27 28 31 35 33 35 38 41 38 46 47 50 52 50 59 66 69 65 64 62 62 61 62 64 66 69 73 76 76 77 79
27 23 25 30 31 32 29 33 38 40 48 49 50 52 53 53 57 62 65 65 63 66 67 67 69 70 70 67 69 71 74 76
30 27 20 26 31 32 35 33 32 33 40 45 48 46 48 52 57 61 62 63 64 63 63 62 61 62 64 67 70 73 75 78
29 28 19 19 25 27 27 28 32 35 36 38 43 44 46 48 52 53 53 55 56 57 58 61 63 65 67 68 71 73 74 75
33 29 23 19 20 23 20 18 19 22 27 32 38 43 47 50 52 54 55 58 60 61 63 64 66 67 69 71 69 71 74 77

GFSFLT1_250_spd_048.txt.gz
Wind_Speed
13 13 20 37 49 63 63 62 68 70 80 73 62 57 59 63 63 61 60 64 69 67 63 60 58 59 61 60 62 63 63 62
8 12 16 26 35 51 57 57 59 73 76 75 70 67 61 64 66 70 69 68 66 65 63 62 63 58 64 64 62 63 62 62
11 13 13 24 29 41 57 58 54 65 73 70 72 68 68 69 68 64 63 68 69 70 69 66 66 61 60 61 59 60 62 68
13 13 13 13 23 40 60 59 55 57 58 60 63 70 75 76 74 67 63 54 57 57 57 57 59 64 61 61 61 63 68 71
17 14 13 11 13 29 40 54 60 59 58 58 66 70 76 52 48 56 61 54 49 49 46 46 48 52 55 55 54 61 64 68
24 22 20 16 14 17 25 27 29 39 46 41 36 37 39 42 42 41 42 42 44 43 46 51 58 61 63 66 67 71 71 69
35 34 30 28 27 25 24 27 32 31 32 34 35 39 41 42 43 44 47 51 53 56 62 67 65 64 66 68 72 72 75 80
35 33 39 35 34 33 33 34 34 37 41 39 41 43 43 44 46 47 48 47 52 57 59 62 64 65 67 70 73 76 77 77
31 38 35 34 38 40 36 36 41 41 40 42 45 46 47 49 52 55 54 56 55 57 60 62 63 63 67 68 69 70 71 74
21 21 34 44 43 41 44 46 40 43 43 42 42 43 45 50 53 49 49 53 55 58 61 61 63 65 65 65 67 70 73 73
19 26 27 27 38 41 45 45 48 40 43 41 37 39 39 36 37 39 43 49 50 52 56 58 62 61 61 65 70 73 76 77
18 19 27 30 31 37 40 46 47 44 41 49 46 40 31 29 34 39 44 48 52 59 63 61 57 58 64 70 74 73 74 78
11 17 18 21 29 34 38 38 41 46 40 34 34 38 35 37 36 34 46 52 52 52 58 61 66 71 71 79 74 74 70 72
30 23 16 17 23 30 35 38 40 38 42 42 40 40 48 47 43 43 43 56 62 65 69 75 74 77 82 77 77 75 74 77
39 34 19 18 21 24 31 38 42 42 43 37 39 44 49 49 47 51 57 63 66 71 79 79 82 85 79 78 78 80 82 81
33 40 34 18 14 18 24 31 38 41 43 44 47 51 55 53 56 56 63 68 71 76 79 82 79 77 75 74 74 74 73 73
30 35 43 36 30 22 20 21 31 34 36 39 43 49 51 53 57 63 66 67 66 66 66 67 67 67 68 71 72 72 73 75
34 31 38 37 35 33 30 25 20 21 32 35 34 38 43 50 56 60 58 58 62 66 68 70 71 72 74 73 71 69 70 73
37 38 34 36 40 35 34 27 25 21 23 28 31 38 43 42 42 40 42 45 47 50 54 57 60 62 63 65 66 68 71 75